EW5058 Weather Reports


Display with metric or nautical units.
time (UTC)temp
F
wind
direction
speed
MPH
gust
MPH
rain 1hr
in
rain 24hr
in
rain mn
in
humidity
%
barometer
mb
20260831041819 77 0.0 1.0 0.00 0.00 0.00 96 1018.4
20260831040818 77 0.0 0.0 0.00 0.00 0.00 96 1018.5
20260831035820 77 0.0 0.0 0.00 0.00 0.00 96 1018.5
20260831034819 77 0.0 1.0 0.00 0.00 0.00 96 1018.6
20260831033840 77 158 1.0 3.0 0.00 0.00 0.00 96 1018.6
20260831032840 78 0.0 0.0 0.00 0.00 0.00 95 1018.6
20260831031820 78 0.0 0.0 0.00 0.00 0.00 95 1018.6
20260831030820 78 0.0 1.0 0.00 0.00 0.00 95 1018.6
20260831025820 78 0.0 2.0 0.00 0.00 0.00 95 1018.6
20260831024840 78 0.0 0.0 0.00 0.00 0.00 94 1018.8
20260831023820 79 180 1.0 3.0 0.00 0.00 0.00 93 1018.9
20260831022820 79 0.0 0.0 0.00 0.00 0.00 92 1019.0
20260831021820 79 0.0 0.0 0.00 0.00 0.00 91 1019.1
20260831020820 79 0.0 2.0 0.00 0.00 0.00 91 1019.1
20260831015840 79 158 1.0 2.0 0.00 0.00 0.00 90 1019.0
20260831014840 79 0.0 2.0 0.00 0.00 0.00 89 1019.0
20260831013820 79 0.0 0.0 0.00 0.00 0.00 88 1019.0
20260831012820 79 0.0 2.0 0.00 0.00 0.00 87 1019.0
20260831011820 79 0.0 1.0 0.00 0.00 0.00 86 1018.9
20260831010819 79 135 1.0 2.0 0.00 0.00 0.00 85 1018.9
20260831005819 79 0.0 1.0 0.00 0.00 0.00 85 1018.9
20260831004819 79 203 3.0 5.0 0.00 0.00 0.00 85 1018.9
20260831003839 79 180 1.0 3.0 0.00 0.00 0.00 86 1018.8
20260831002819 79 203 1.0 3.0 0.00 0.00 0.00 85 1018.8
20260831001819 79 0.0 0.0 0.00 0.00 0.00 85 1018.8
20260831000820 80 0.0 1.0 0.00 0.00 0.00 84 1018.8
20260830235819 80 0.0 0.0 0.00 0.00 0.00 83 1018.6
20260830234819 81 0.0 1.0 0.00 0.00 0.00 82 1018.5
20260830233819 81 0.0 0.0 0.00 0.00 0.00 82 1018.5
20260830232819 81 0.0 0.0 0.00 0.00 0.00 81 1018.7
20260830231819 82 0.0 1.0 0.00 0.00 0.00 80 1018.7
20260830230819 82 203 1.0 2.0 0.00 0.00 0.00 79 1018.8
20260830225819 83 0.0 0.0 0.00 0.00 0.00 78 1018.6
20260830224819 83 180 1.0 2.0 0.00 0.00 0.00 77 1018.5
20260830223819 84 180 1.0 3.0 0.00 0.00 0.00 77 1018.4
20260830222819 84 180 1.0 3.0 0.00 0.00 0.00 76 1018.6
20260830221819 84 180 1.0 3.0 0.00 0.00 0.00 76 1018.7
20260830220839 84 180 3.0 4.0 0.00 0.00 0.00 75 1018.6
20260830215819 84 180 1.0 3.0 0.00 0.00 0.00 75 1018.5
20260830214819 84 158 4.0 5.0 0.00 0.00 0.00 74 1018.4
20260830213819 84 180 1.0 2.0 0.00 0.00 0.00 74 1018.3
20260830212819 85 158 2.0 4.0 0.00 0.00 0.00 74 1018.1
20260830211819 85 203 2.0 4.0 0.00 0.00 0.00 74 1018.2
20260830210819 85 180 1.0 2.0 0.00 0.00 0.00 74 1018.1
20260830205819 85 225 2.0 2.0 0.00 0.00 0.00 73 1018.3
20260830204839 85 180 1.0 2.0 0.00 0.00 0.00 74 1018.3
20260830203819 85 180 1.0 4.0 0.00 0.00 0.00 73 1018.2
20260830202838 85 180 2.0 3.0 0.00 0.00 0.00 74 1018.3
20260830201818 85 180 5.0 8.0 0.00 0.00 0.00 74 1018.5
20260830200819 85 180 3.0 4.0 0.00 0.00 0.00 73 1018.6
20260830195819 85 203 2.0 4.0 0.00 0.00 0.00 71 1018.8
20260830194818 86 158 4.0 7.0 0.00 0.00 0.00 71 1018.9
20260830193819 87 158 3.0 5.0 0.00 0.00 0.00 68 1019.0
20260830192819 88 0.0 0.0 0.00 0.00 0.00 68 1019.3
20260830191818 88 225 2.0 4.0 0.00 0.00 0.00 69 1019.5
20260830190819 88 180 1.0 1.0 0.00 0.00 0.00 71 1019.6
20260830185818 88 203 2.0 3.0 0.00 0.00 0.00 72 1019.7
20260830184819 89 135 3.0 4.0 0.00 0.00 0.00 71 1019.9
20260830183818 88 180 2.0 4.0 0.00 0.00 0.00 67 1020.1
20260830182819 88 180 3.0 4.0 0.00 0.00 0.00 69 1020.3
20260830181819 89 180 5.0 9.0 0.00 0.00 0.00 69 1020.3
20260830180819 89 180 1.0 3.0 0.00 0.00 0.00 71 1020.3
20260830175839 90 203 1.0 3.0 0.00 0.00 0.00 67 1020.5
20260830174820 90 203 1.0 2.0 0.00 0.00 0.00 70 1020.6
20260830173818 91 158 1.0 2.0 0.00 0.00 0.00 69 1020.7
20260830172819 90 180 1.0 3.0 0.00 0.00 0.00 67 1020.9
20260830171820 89 180 3.0 5.0 0.00 0.00 0.00 64 1021.2
20260830170818 90 293 1.0 3.0 0.00 0.00 0.00 68 1021.2
20260830165818 89 180 2.0 3.0 0.00 0.00 0.00 66 1021.4
20260830164818 88 180 2.0 3.0 0.00 0.00 0.00 68 1021.4
20260830163838 87 158 3.0 5.0 0.00 0.00 0.00 71 1021.5
20260830162818 87 203 1.0 1.0 0.00 0.00 0.00 70 1021.5
20260830161819 88 180 2.0 3.0 0.00 0.00 0.00 73 1021.4
20260830160818 86 113 3.0 6.0 0.00 0.00 0.00 72 1021.4
20260830155818 86 180 2.0 3.0 0.00 0.00 0.00 74 1021.5
20260830154818 86 203 1.0 3.0 0.00 0.00 0.00 75 1021.6
20260830153818 86 180 3.0 8.0 0.00 0.00 0.00 74 1021.6
20260830152818 85 180 4.0 5.0 0.00 0.00 0.00 74 1021.6
20260830151820 86 203 3.0 6.0 0.00 0.00 0.00 75 1021.7
20260830150838 86 203 2.0 3.0 0.00 0.00 0.00 76 1021.6
20260830145818 85 158 2.0 4.0 0.00 0.00 0.00 78 1021.7
20260830144820 83 203 1.0 3.0 0.00 0.00 0.00 79 1021.7
20260830143820 82 180 3.0 6.0 0.00 0.00 0.00 79 1021.7
20260830142820 81 180 2.0 3.0 0.00 0.00 0.00 86 1021.8
20260830141840 80 158 3.0 6.0 0.00 0.00 0.00 87 1021.8
20260830140820 79 270 2.0 6.0 0.00 0.00 0.00 87 1022.0
20260830135820 79 180 4.0 5.0 0.00 0.00 0.00 89 1022.0
20260830134841 78 180 2.0 5.0 0.00 0.00 0.00 91 1022.1
20260830133838 77 203 3.0 4.0 0.00 0.00 0.00 93 1022.2
20260830132838 76 180 3.0 4.0 0.00 0.00 0.00 94 1022.4
20260830131820 75 180 3.0 6.0 0.00 0.00 0.00 94 1022.5
20260830130818 75 0.0 1.0 0.00 0.00 0.00 95 1022.6
20260830125859 74 180 3.0 6.0 0.00 0.00 0.00 96 1022.7
20260830124819 74 180 2.0 4.0 0.00 0.00 0.00 97 1022.7
20260830123820 73 203 3.0 4.0 0.00 0.00 0.00 98 1022.7
20260830122820 73 0.0 1.0 0.00 0.00 0.00 99 1022.8
20260830121840 72 158 1.0 3.0 0.00 0.00 0.00 99 1022.9
20260830120820 71 0.0 1.0 0.00 0.00 0.00 99 1022.9
20260830115820 70 158 1.0 3.0 0.00 0.00 0.00 99 1022.9
20260830114820 69 0.0 0.0 0.00 0.00 0.00 99 1022.8
20260830113820 69 0.0 0.0 0.00 0.00 0.00 99 1022.8
20260830112820 68 0.0 0.0 0.00 0.00 0.00 99 1022.8
20260830111819 68 0.0 0.0 0.00 0.00 0.00 98 1022.9
20260830110819 68 0.0 0.0 0.00 0.00 0.00 98 1022.8
20260830105820 68 0.0 0.0 0.00 0.00 0.00 98 1022.7
20260830104820 68 0.0 0.0 0.00 0.00 0.00 98 1022.6
20260830103820 68 0.0 0.0 0.00 0.00 0.00 98 1022.6
20260830102820 68 0.0 0.0 0.00 0.00 0.00 98 1022.5
20260830101819 68 0.0 0.0 0.00 0.00 0.00 98 1022.4
20260830100819 68 0.0 0.0 0.00 0.00 0.00 98 1022.3
20260830095819 68 0.0 0.0 0.00 0.00 0.00 98 1022.3
20260830094819 68 0.0 0.0 0.00 0.00 0.00 98 1022.4
20260830093819 68 0.0 1.0 0.00 0.00 0.00 98 1022.4
20260830092820 68 0.0 0.0 0.00 0.00 0.00 98 1022.5
20260830091819 68 0.0 0.0 0.00 0.00 0.00 98 1022.4
20260830090819 68 0.0 0.0 0.00 0.00 0.00 98 1022.3
20260830085819 68 0.0 0.0 0.00 0.00 0.00 98 1022.4
20260830084820 68 0.0 0.0 0.00 0.00 0.00 97 1022.4
20260830083819 68 0.0 0.0 0.00 0.00 0.00 97 1022.4
20260830082819 67 0.0 0.0 0.00 0.00 0.00 97 1022.5
20260830081819 67 0.0 0.0 0.00 0.00 0.00 97 1022.5
20260830080819 67 0.0 0.0 0.00 0.00 0.00 97 1022.5
20260830075819 67 0.0 0.0 0.00 0.00 0.00 97 1022.5
20260830074819 67 0.0 0.0 0.00 0.00 0.00 97 1022.5
20260830073819 67 0.0 0.0 0.00 0.00 0.00 96 1022.5
20260830072819 67 0.0 0.0 0.00 0.00 0.00 96 1022.5
20260830071820 67 0.0 0.0 0.00 0.00 0.00 96 1022.6
20260830070819 68 0.0 0.0 0.00 0.00 0.00 97 1022.6
20260830065819 67 0.0 0.0 0.00 0.00 0.00 97 1022.7
20260830064819 67 0.0 0.0 0.00 0.00 0.00 96 1022.8
20260830063819 67 0.0 0.0 0.00 0.00 0.00 96 1023.1
20260830062819 67 0.0 0.0 0.00 0.00 0.00 96 1023.1
20260830061819 67 0.0 0.0 0.00 0.00 0.00 96 1023.2
20260830060839 67 0.0 0.0 0.00 0.00 0.00 96 1023.2
20260830055819 67 0.0 0.0 0.00 0.00 0.00 96 1023.1
20260830054819 68 0.0 0.0 0.00 0.00 0.00 96 1023.0
20260830053819 68 0.0 0.0 0.00 0.00 0.00 96 1023.1
20260830052819 68 0.0 0.0 0.00 0.00 0.00 96 1023.2
20260830051819 68 0.0 0.0 0.00 0.00 0.00 96 1023.2
20260830050819 68 0.0 0.0 0.00 0.00 0.00 96 1023.2
20260830045819 68 0.0 1.0 0.00 0.00 0.00 96 1023.2
20260830044819 68 0.0 0.0 0.00 0.00 0.00 95 1023.3
20260830043819 68 0.0 0.0 0.00 0.00 0.00 96 1023.1
20260830042839 68 0.0 0.0 0.00 0.00 0.00 95 1022.9